COSMOS 1275 DEB

Satellite information

Favourite Embed

Satellite Type and Status

DEBRISIN ORBIT

Key statistics

Satellite COSMOS 1275 DEB at a glance.

Uptime

16264

Days in orbit

Revolutions

≈ 14.4

Per day

Orbit

LEO

Low Earth Orbit

Inclination

83.2

Latest

Satellite identification and parameters

Extended collection of information and parameters for COSMOS 1275 DEB.

Object identification

Identified? True

Debris? True

Object name: COSMOS 1275 DEB

International designator: 1981-053HG

Object number (NORAD): 13812

Object ID (CCSDS): 13812

Country: COMMONWEALTH OF INDEPENDENT STATES (CIS)

Current information (Y/N): Y

RCS size: SMALL

Orbital parameters

Period: 100.235 minutes

Inclination: 83.2477 deg

SMA: 7147.793 km

Apoapsis: 794.185 km

Periapsis: 745.131 km

RAAN: 153.877 deg

Eccentricy: 0.0034314

Argument of periapsis: 186.5527 deg

Mean anomaly: 299.4398 deg

Mean motion: 14.36629687 rev/day

Mean motion (dot): 0.00011769 rev/day2

B* drag term: 0.0039643 1/REarth

Two-line elements (TLE)

Creation date: Dec. 12, 2025, 7:16 a.m.

Reference frame: TEME

Reference center: EARTH

Epoch: Dec. 11, 2025, 11:18 p.m. UTC

TLE line 0: 0 COSMOS 1275 DEB

TLE line 1: 1 13812U 81053HG 25345.97086520 .00011769 00000-0 39643-2 0 9999

TLE line 2: 2 13812 83.2477 153.8770 0034314 186.5527 299.4398 14.36629687198901

Live tracking on map

Real-time ground track for satellite COSMOS 1275 DEB.

In-orbit conjunctions

A list of the most updated potential collisions computed for object COSMOS 1275 DEB.

Target Orbit TCA Probability of collision Miss distance Type
IRIDIUM 33 DEB LEO 2025-09-03 22:31:17 0.0002909286 61.0 (m) DEBRIS
CZ-6A DEB LEO 2024-12-13 23:26:30 0.0001264877 106.0 (m) DEBRIS

Associated space launch

Navigation satellite providing location information for the Tsiklon-B navigation system

COSMOS 1275 DEB was lifted into orbit during the mission ‘Kosmos-3M | Parus 27’, on board a Kosmos-3M space rocket.

The launch took place on June 4, 1981, 3:41 p.m. from 132/2.

For more information about the launch, click the button.

Launch to space Kosmos-3M | Parus 27
Kosmos-3M | Parus 27

Agency: N/A

Status: Launch Successful

Launch date: June 4, 1981, 3:41 p.m. UTC

Rocket: Kosmos-3M

Launch pad: 132/2

Location: Plesetsk Cosmodrome, Russian Federation

...

Latest news about this satellite

There are no fresh news available about this satellite. Check back as we update our databases every day.


Newsletter sign-up

Weekly statistics, charts and insights to help you stay on top of the space industry.